Flag for U.S.A. Weather past 2 weeks in Springfield, Illinois, U.S.A.

Now
81 °F

Sunny.


Feels Like: 85 °F
Forecast: 71 / 86 °F
Wind: 3 mph from Southeast

Location: Capital Airport

Current Time: Aug 27, 2014 at 10:55:44 AM

Latest Report: Aug 27, 2014 at 9:52 AM


Visibility: 10 mi

Pressure: 30.10 "Hg

Humidity: 72%

Dew point: 71 °F

Location of SpringfieldLocation

Historic Weather in Springfield — Graph

°F

Springfield temperature yesterday

Maximum temperature yesterday: 92 °F (at 2:52 PM)
Minimum temperature yesterday: 74 °F (at 5:52 AM)
Average temperature yesterday: 83 °F

Past Weeks' High & Low Weather Summary

 TemperatureHumidityPressure
High96 °F (Aug 25, 4:52 PM)100% (Aug 18, 3:52 AM)30.11 "Hg (Aug 18, 3:52 AM)
Low54 °F (Aug 13, 5:52 AM)42% (Aug 13, 1:52 PM)29.76 "Hg (Aug 19, 4:52 PM)
Average76 °F79%29.95 "Hg
* Reported Aug 12 8:52 AM — Aug 27 8:52 AM, Springfield, Weather by CustomWeather, © 2014

Note: Actual official high and low records may vary slightly from our data, if they occured in-between our weather recording intervals... More about our weather records

Advertising

Springfield weather history for previous 24 hours

 ConditionsComfort  
Time TempWeatherWind HumidityBarometerVisibility
8:52 AM
Aug 27
78 °FSunny.No wind74%30.10 "Hg10 mi
7:52 AM74 °FSunny.No wind85%30.10 "Hg10 mi
6:52 AM71 °FClear.No wind87%30.08 "Hg10 mi
5:52 AM70 °FClear.3 mph87%30.07 "Hg10 mi
4:52 AM71 °FClear.5 mph84%30.07 "Hg10 mi
3:52 AM71 °FClear.8 mph84%30.07 "Hg10 mi
2:52 AM72 °FClear.6 mph78%30.06 "Hg10 mi
1:52 AM73 °FClear.5 mph79%30.06 "Hg10 mi
12:52 AM73 °FClear.6 mph79%30.06 "Hg10 mi
11:52 PM
Aug 26
75 °FClear.12 mph76%30.07 "Hg10 mi
10:52 PM75 °FPassing clouds.8 mph79%30.07 "Hg10 mi
9:52 PM77 °FThundershowers. Mostly cloudy.16 mph71%30.07 "Hg10 mi
8:52 PM83 °FThundershowers. Passing clouds.9 mph70%30.03 "Hg10 mi
7:52 PM85 °FScattered clouds.6 mph80%30.02 "Hg10 mi
6:52 PM89 °FSunny.3 mph70%30.02 "Hg10 mi
5:52 PM92 °FSunny.3 mph62%30.01 "Hg10 mi
4:52 PM92 °FPassing clouds.6 mph58%30.02 "Hg10 mi
3:52 PM92 °FSunny.5 mph60%30.02 "Hg10 mi
2:52 PM92 °FSunny.5 mph60%30.05 "Hg10 mi
1:52 PM90 °FSunny.3 mph61%30.06 "Hg10 mi
12:52 PM90 °FSunny.3 mph61%30.08 "Hg10 mi
11:52 AM88 °FScattered clouds.5 mph67%30.08 "Hg10 mi
10:52 AM87 °FPartly sunny.5 mph69%30.08 "Hg10 mi
Weather by CustomWeather, © 2014

See weather overviewHow to use our weather pages